User: anonymous
Location: Ostrava
(49.8330°N, 18.2830°E)
Time: 00:02:17
(UTC+02:00)
Language:

NOAA 19 - Orbit

View from above orbital plane
View from above orbital plane
View from above satellite
View from above satellite

Ground track
Ground track

The orbit data is extracted from the following two-line orbital elements,

1 33591U 09005A   14263.47066988  .00000210  00000-0  13948-3 0  3949
2 33591 098.9533 208.2579 0013559 207.0050 291.1722 14.11764765289432
Epoch (UTC): 20 September 2014 11:17:45
Eccentricity: 0.0013559
inclination: 98.9533°
perigee height: 843 km
apogee height: 863 km
right ascension of ascending node: 208.2579°
argument of perigee: 207.0050°
revolutions per day: 14.11764765
mean anomaly at epoch: 291.1722°
orbit number at epoch: 28943

The dashed part of the orbit path shows where the satellite is in the earth's shadow,  

DLR